Nuiqsut, AK

10:24 AM AKDT on October 20, 2017 (GMT -0800)
Nuiqsut

Weather History for PAQT - February, 2013

Change the Weather History Date:

Friday, February 15, 2013

  Actual Average (PAKU) Record (PAKU)
Temperature  
Mean Temperature -16 °F -  
Max Temperature -15 °F -13 °F 27 °F (1989)
Min Temperature -18 °F -20 °F -50 °F (1985)
Degree Days  
Heating Degree Days 82    
Moisture  
Dew Point -22 °F    
Average Humidity 81    
Maximum Humidity 84    
Minimum Humidity 76    
Precipitation  
Precipitation 0.00 in - - ()
Sea Level Pressure  
Sea Level Pressure 30.08 in    
Wind  
Wind Speed 11 mph (NE)    
Max Wind Speed 15 mph    
Max Gust Speed -    
Visibility 8 miles    
Events      
Averages and records for this station are not official NWS values.
T = Trace of Precipitation, MM = Missing Value Source: NWS Daily Summary

Daily Weather History Graph

Daily Weather History Graph

Search for Another Location

Airport or City:

Trip Planner

Search our weather history database for the weather conditions in past years. The results will help you decide how hot, cold, wet, or windy it might be!

Date:

Astronomy

Feb. 15, 2013 Rise Set
Actual Time 9:36 AM AKST 5:01 PM AKST
Civil Twilight 8:27 AM AKST 6:10 PM AKST
Nautical Twilight 7:14 AM AKST 7:23 PM AKST
Astronomical Twilight 6:03 AM AKST 8:35 PM AKST
Moon 8:27 AM AKST (2/15) 1:54 AM AKST (2/15)
Length of Visible Light 9h 43m
Length of Day
7h 24m
Waxing Crescent, 31% of the Moon is Illuminated
Feb 15
Waxing Crescent
Feb 17
First Quarter
Feb 25
Full
Mar 4
Last Quarter
Mar 11
New

Hourly Weather History & Observations

Time (AKST) Temp. Windchill Dew Point Humidity Pressure Visibility Wind Dir Wind Speed Gust Speed Precip Events Conditions
12:53 AM -16.1 °F -37.2 °F -20.0 °F 82% 29.97 in 1.2 mi NE 11.5 mph - N/A   Overcast
1:22 AM -16.6 °F -38.9 °F -20.2 °F 84% 29.97 in 2.0 mi NE 12.7 mph - N/A   Overcast
1:41 AM -16.6 °F -40.6 °F -20.2 °F 84% 29.97 in 3.0 mi NE 15.0 mph - N/A   Overcast
1:53 AM -16.1 °F -39.1 °F -20.0 °F 82% 29.98 in 3.0 mi NE 13.8 mph - N/A   Overcast
3:28 AM -16.6 °F -40.6 °F -20.2 °F 84% 29.98 in 5.0 mi NE 15.0 mph - N/A   Overcast
3:53 AM -17.0 °F -39.3 °F -20.9 °F 82% 30.00 in 5.0 mi NE 12.7 mph - N/A   Overcast
4:53 AM -18.0 °F -42.5 °F -22.0 °F 82% 30.00 in 5.0 mi NE 15.0 mph - N/A   Overcast
5:53 AM -18.9 °F -43.6 °F -24.0 °F 78% 30.01 in 8.0 mi NE 15.0 mph - N/A   Overcast
6:11 AM -18.4 °F -42.9 °F -23.8 °F 76% 30.00 in 8.0 mi NE 15.0 mph - N/A   Overcast
6:53 AM -18.9 °F -39.8 °F -24.0 °F 78% 30.02 in 7.0 mi NE 10.4 mph - N/A   Overcast
7:53 AM -18.9 °F -40.8 °F -23.1 °F 81% 30.02 in 9.0 mi NE 11.5 mph - N/A   Overcast
8:48 AM -18.4 °F -40.2 °F -23.8 °F 76% 30.02 in 6.0 mi NE 11.5 mph - N/A   Haze
8:53 AM -18.0 °F -39.7 °F -23.1 °F 78% 30.03 in 6.0 mi NE 11.5 mph - N/A   Haze
9:36 AM -18.4 °F -40.2 °F -23.8 °F 76% 30.03 in 7.0 mi NE 11.5 mph - N/A   Overcast
9:53 AM -18.0 °F -39.7 °F -23.1 °F 78% 30.04 in 5.0 mi NE 11.5 mph - N/A   Haze
10:53 AM -18.0 °F -39.7 °F -22.0 °F 82% 30.06 in 5.0 mi ENE 11.5 mph - N/A   Overcast
11:38 AM -18.4 °F -37.9 °F -22.0 °F 84% 30.06 in 9.0 mi NE 9.2 mph - N/A   Overcast
11:53 AM -18.0 °F -37.5 °F -22.0 °F 82% 30.07 in 10.0 mi NE 9.2 mph - N/A   Overcast
12:53 PM -18.0 °F -37.5 °F -22.0 °F 82% 30.09 in 10.0 mi NE 9.2 mph - N/A   Mostly Cloudy
1:53 PM -16.1 °F -37.2 °F -20.9 °F 79% 30.10 in 8.0 mi NE 11.5 mph - N/A   Overcast
2:48 PM -16.6 °F -36.8 °F -20.2 °F 84% 30.10 in 10.0 mi ENE 10.4 mph - N/A   Overcast
2:53 PM -17.0 °F -36.1 °F -20.9 °F 82% 30.12 in 10.0 mi ENE 9.2 mph - N/A   Overcast
3:53 PM -17.0 °F -29.7 °F -22.0 °F 78% 30.12 in 9.0 mi NE 4.6 mph - N/A   Mostly Cloudy
4:53 PM -16.1 °F -32.3 °F -20.9 °F 79% 30.13 in 10.0 mi NE 6.9 mph - N/A   Overcast
5:33 PM -16.6 °F -32.9 °F -20.2 °F 84% 30.14 in 10.0 mi ENE 6.9 mph - N/A   Overcast
5:53 PM -17.0 °F -29.7 °F -20.9 °F 82% 30.15 in 10.0 mi ENE 4.6 mph - N/A   Overcast
6:19 PM -16.6 °F -26.8 °F -20.2 °F 84% 30.15 in 10.0 mi ENE 3.5 mph - N/A   Overcast
6:53 PM -16.1 °F - -20.9 °F 79% 30.17 in 10.0 mi Calm Calm - N/A   Overcast
7:53 PM -16.1 °F - -20.9 °F 79% 30.17 in 10.0 mi Calm Calm - N/A   Overcast
8:53 PM -15.0 °F -27.4 °F -20.0 °F 78% 30.19 in 10.0 mi NNE 4.6 mph - N/A   Overcast
9:53 PM -15.0 °F -31.0 °F -20.0 °F 78% 30.21 in 10.0 mi NNE 6.9 mph - N/A   Overcast
10:53 PM -18.0 °F -37.5 °F -22.0 °F 82% 30.23 in 10.0 mi NE 9.2 mph - N/A   Overcast
11:53 PM -18.0 °F -36.1 °F -23.1 °F 78% 30.23 in 10.0 mi NE 8.1 mph - N/A   Overcast